Weather in Zuyakovo

Russia / Republic of Bashkortostan     54°24′26″N   57°22′02″E
temp.,
°C
wind,
m/s
gust,
m/s
humid.,
%
clouds,
%
prec.,
mm/h
press.,
hPa
HPBL,
m
4 march, thu
thu423:00−6s2597100 0.4 1001136
02:00−6ssw2697100 0.9 1001288
05:00−8sw2696100 2.3 1002332
08:00−8wsw2796100 1.6 1002458
11:00−8wsw3692100 2.4 1004516
14:00−7sw4992100 0.6 1002666
17:00−6sw41093100 1.7 1002755
20:00−6ssw51394100 1.1 1001906
5 march, fri
fri523:00−5ssw61593100 2.9 9991097
02:00−2sw71696100 2.4 9961285
05:00−1w61397100 6.3 9981311
08:00−4w41195100 3.6 1000843
11:00−4wsw2496100 7.4 1001369
14:00−2wnw2496100 3.6 1001393
17:00−3nw2597100 7.1 1002438
20:00−6wnw1497100 1.8 1004220
6 march, sat
sat623:00−10wnw1297100 2.4 100828
02:00−16sw119733 0.0 101020
05:00−17s129516 0.0 101320
08:00−18sse22920 0.0 101420
11:00−10sw24850 0.0 1013395
14:00−7wsw368311 0.0 1013671
17:00−7wsw368516 0.0 1012655
20:00−11ssw129599 0.1 101229
7 march, sun
sun723:00−11s1296100 0.3 101221
02:00−12sse1196100 0.2 101021
05:00−13ese0096100 0.3 101020
08:00−14nw1198100 0.1 100920
11:00−11wnw1292100 0.3 1009407
14:00−10wnw4592100 0.3 1009656
17:00−12wnw3593100 0.6 1010584
20:00−17sw1299100 0.2 101221
8 march, mon
mon823:00−20sse229898 0.2 101421
02:00−22se229412 0.0 101326
05:00−20se229755 0.1 101277
08:00−16se3696100 0.1 1009227
11:00−9ssw51094100 1.8 1006877
14:00−7ssw61487100 1.1 10051142
17:00−5w51278100 2.4 10061520
20:00−10sse228737 0.0 100822